Time,TemperatureF,DewpointF,PressureIn,WindDirection,WindDirectionDegrees,WindSpeedMPH,WindSpeedGustMPH,Humidity,HourlyPrecipIn,Conditions,Clouds,dailyrainin,SoftwareType,DateUTC
2013-11-13 00:11:00,56.0,47.0,30.24,NNW,344,0.0,3.0,72,-99.99,,,-99.99,,2013-11-13 08:11:00,
2013-11-13 00:22:00,56.0,47.0,30.24,NNW,344,0.0,3.0,72,-99.99,,,-99.99,,2013-11-13 08:22:00,
2013-11-13 00:32:00,56.0,47.0,30.24,NNW,344,0.0,3.0,72,-99.99,,,-99.99,,2013-11-13 08:32:00,
2013-11-13 01:43:00,55.0,47.0,30.24,North,0,1.0,2.0,73,-99.99,,,-99.99,,2013-11-13 09:43:00,
2013-11-13 02:23:00,55.0,47.0,30.24,NNE,13,1.0,6.0,74,-99.99,,,-99.99,,2013-11-13 10:23:00,
2013-11-13 03:52:00,55.0,47.0,30.21,NNE,30,7.0,12.0,75,-99.99,,,-99.99,,2013-11-13 11:52:00,
2013-11-13 07:21:00,51.0,43.0,30.20,ENE,73,0.0,2.0,73,-99.99,,,-99.99,,2013-11-13 15:21:00,
2013-11-13 07:43:00,51.0,43.0,30.21,ENE,65,0.0,6.0,74,-99.99,,,-99.99,,2013-11-13 15:43:00,
2013-11-13 07:53:00,51.0,43.0,30.21,ENE,65,0.0,6.0,74,-99.99,,,-99.99,,2013-11-13 15:53:00,
2013-11-13 08:23:00,53.0,44.0,30.22,NE,47,4.0,5.0,71,-99.99,,,-99.99,,2013-11-13 16:23:00,
2013-11-13 08:42:00,54.0,44.0,30.22,NE,34,6.0,8.0,70,-99.99,,,-99.99,,2013-11-13 16:42:00,
2013-11-13 09:22:00,59.0,46.0,30.22,ESE,121,1.0,3.0,62,-99.99,,,-99.99,,2013-11-13 17:22:00,
2013-11-13 10:23:00,64.0,47.0,30.21,East,95,5.0,14.0,54,-99.99,,,-99.99,,2013-11-13 18:23:00,
2013-11-13 10:42:00,65.0,47.0,30.22,NE,56,7.0,10.0,53,-99.99,,,-99.99,,2013-11-13 18:42:00,
2013-11-13 10:52:00,66.0,48.0,30.22,ENE,61,2.0,10.0,52,-99.99,,,-99.99,,2013-11-13 18:52:00,
2013-11-13 11:11:00,68.0,49.0,30.21,NNE,27,4.0,7.0,50,-99.99,,,-99.99,,2013-11-13 19:11:00,
2013-11-13 11:21:00,68.0,49.0,30.21,NNE,27,4.0,7.0,50,-99.99,,,-99.99,,2013-11-13 19:21:00,
2013-11-13 11:52:00,72.0,48.0,30.19,NE,44,4.0,7.0,43,-99.99,,,-99.99,,2013-11-13 19:52:00,
2013-11-13 12:21:00,74.0,49.0,30.16,NNE,25,3.0,8.0,41,-99.99,,,-99.99,,2013-11-13 20:21:00,
2013-11-13 12:52:00,75.0,48.0,30.14,ESE,107,2.0,7.0,38,-99.99,,,-99.99,,2013-11-13 20:52:00,
2013-11-13 13:01:00,75.0,48.0,30.14,ESE,107,2.0,7.0,38,-99.99,,,-99.99,,2013-11-13 21:01:00,
2013-11-13 13:21:00,77.0,53.0,30.13,SW,236,8.0,12.0,44,-99.99,,,-99.99,,2013-11-13 21:21:00,
2013-11-13 13:43:00,73.0,53.0,30.13,SW,220,7.0,11.0,49,-99.99,,,-99.99,,2013-11-13 21:43:00,
2013-11-13 13:53:00,71.0,51.0,30.13,WSW,239,3.0,11.0,50,-99.99,,,-99.99,,2013-11-13 21:53:00,
2013-11-13 14:23:00,70.0,51.0,30.12,WSW,243,5.0,11.0,51,-99.99,,,-99.99,,2013-11-13 22:23:00,
2013-11-13 14:33:00,70.0,51.0,30.12,WSW,243,5.0,11.0,51,-99.99,,,-99.99,,2013-11-13 22:33:00,
2013-11-13 14:42:00,70.0,51.0,30.12,WSW,243,5.0,11.0,51,-99.99,,,-99.99,,2013-11-13 22:42:00,
2013-11-13 14:53:00,70.0,51.0,30.12,WSW,243,5.0,11.0,51,-99.99,,,-99.99,,2013-11-13 22:53:00,
2013-11-13 15:11:00,68.0,51.0,30.11,SSW,212,6.0,11.0,55,-99.99,,,-99.99,,2013-11-13 23:11:00,
2013-11-13 15:22:00,68.0,51.0,30.11,SSW,212,6.0,11.0,55,-99.99,,,-99.99,,2013-11-13 23:22:00,
2013-11-13 15:43:00,67.0,51.0,30.11,SW,224,7.0,7.0,56,-99.99,,,-99.99,,2013-11-13 23:43:00,
2013-11-13 15:53:00,67.0,51.0,30.12,SSW,212,3.0,6.0,56,-99.99,,,-99.99,,2013-11-13 23:53:00,
2013-11-13 16:02:00,67.0,51.0,30.12,SSW,212,3.0,6.0,56,-99.99,,,-99.99,,2013-11-14 00:02:00,
2013-11-13 16:11:00,67.0,51.0,30.12,SSW,212,3.0,6.0,56,-99.99,,,-99.99,,2013-11-14 00:11:00,
2013-11-13 16:22:00,67.0,51.0,30.12,SSW,212,3.0,6.0,56,-99.99,,,-99.99,,2013-11-14 00:22:00,
2013-11-13 16:52:00,65.0,52.0,30.12,SW,223,5.0,6.0,62,-99.99,,,-99.99,,2013-11-14 00:52:00,
2013-11-13 17:21:00,62.0,51.0,30.11,SW,226,3.0,5.0,68,-99.99,,,-99.99,,2013-11-14 01:21:00,
2013-11-13 17:32:00,62.0,51.0,30.11,SW,226,3.0,5.0,68,-99.99,,,-99.99,,2013-11-14 01:32:00,
2013-11-13 17:42:00,62.0,51.0,30.11,SW,226,3.0,5.0,68,-99.99,,,-99.99,,2013-11-14 01:42:00,
2013-11-13 17:52:00,62.0,51.0,30.11,SW,226,3.0,5.0,68,-99.99,,,-99.99,,2013-11-14 01:52:00,
2013-11-13 18:21:00,55.0,51.0,30.13,SW,233,2.0,6.0,85,-99.99,,,-99.99,,2013-11-14 02:21:00,
2013-11-13 19:11:00,54.0,51.0,30.13,WSW,243,0.0,1.0,89,-99.99,,,-99.99,,2013-11-14 03:11:00,
2013-11-13 19:21:00,54.0,51.0,30.13,WSW,243,0.0,1.0,89,-99.99,,,-99.99,,2013-11-14 03:21:00,
2013-11-13 19:54:00,53.0,50.0,30.14,WSW,239,2.0,3.0,91,-99.99,,,-99.99,,2013-11-14 03:54:00,
2013-11-13 20:14:00,53.0,51.0,30.14,WSW,243,0.0,5.0,92,-99.99,,,-99.99,,2013-11-14 04:14:00,
2013-11-13 20:24:00,53.0,51.0,30.14,WSW,243,0.0,5.0,92,-99.99,,,-99.99,,2013-11-14 04:24:00,
2013-11-13 20:43:00,53.0,51.0,30.13,WSW,243,0.0,0.0,92,-99.99,,,-99.99,,2013-11-14 04:43:00,
2013-11-13 20:54:00,53.0,51.0,30.13,WSW,243,0.0,0.0,92,-99.99,,,-99.99,,2013-11-14 04:54:00,
2013-11-13 21:23:00,53.0,51.0,30.12,SSW,199,0.0,2.0,93,-99.99,,,-99.99,,2013-11-14 05:23:00,
2013-11-13 21:44:00,53.0,51.0,30.12,SSW,199,0.0,0.0,93,-99.99,,,-99.99,,2013-11-14 05:44:00,
2013-11-13 21:53:00,53.0,51.0,30.12,SSW,199,0.0,0.0,93,-99.99,,,-99.99,,2013-11-14 05:53:00,
2013-11-13 22:21:00,52.0,50.0,30.12,SSW,199,0.0,0.0,94,-99.99,,,-99.99,,2013-11-14 06:21:00,
2013-11-13 22:52:00,52.0,50.0,30.13,SSW,199,0.0,0.0,94,-99.99,,,-99.99,,2013-11-14 06:52:00,
2013-11-13 23:22:00,51.0,49.0,30.12,SSW,199,0.0,0.0,94,-99.99,,,-99.99,,2013-11-14 07:22:00,
2013-11-13 23:42:00,51.0,49.0,30.13,SSW,199,0.0,0.0,94,-99.99,,,-99.99,,2013-11-14 07:42:00,
2013-11-13 23:52:00,51.0,49.0,30.13,SSW,199,0.0,0.0,94,-99.99,,,-99.99,,2013-11-14 07:52:00,